TimeHST,TemperatureF,Dew PointF,Humidity,Sea Level PressureIn,VisibilityMPH,Wind Direction,Wind SpeedMPH,Gust SpeedMPH,PrecipitationIn,Events,Conditions,WindDirDegrees,DateUTC
12:07 AM,39.2,39.2,100,29.44,2.5,NW,3.5,-,N/A,Rain,Light Rain,310,2013-12-01 10:07:00
12:16 AM,39.2,39.2,100,29.44,-9999.0,WNW,6.9,-,N/A,Rain,Light Rain,300,2013-12-01 10:16:00
12:18 AM,39.2,39.2,100,29.44,1.5,WNW,6.9,-,N/A,Rain,Light Rain,300,2013-12-01 10:18:00
12:20 AM,39.2,39.2,100,29.44,1.2,WNW,6.9,-,N/A,Rain,Light Rain,300,2013-12-01 10:20:00
12:24 AM,39.2,39.2,100,29.44,1.2,WNW,12.7,-,N/A,Rain,Light Rain,300,2013-12-01 10:24:00
12:29 AM,39.2,39.2,100,29.44,1.8,WNW,16.1,-,N/A,Rain,Light Rain,300,2013-12-01 10:29:00
12:37 AM,39.2,39.2,100,29.44,-9999.0,NW,18.4,-,N/A,Rain,Light Rain,310,2013-12-01 10:37:00
12:56 AM,39.0,39.0,100,29.44,4.0,NW,21.9,-,N/A,Rain,Light Rain,320,2013-12-01 10:56:00
1:15 AM,39.2,39.2,100,29.44,-9999.0,NW,19.6,-,N/A,,Overcast,310,2013-12-01 11:15:00
1:56 AM,37.9,37.0,97,29.45,7.0,NW,25.3,29.9,N/A,Rain,Light Rain,310,2013-12-01 11:56:00
2:02 AM,37.4,37.4,100,29.45,10.0,NW,26.5,-,N/A,Rain,Light Rain,310,2013-12-01 12:02:00
2:11 AM,37.4,37.4,100,29.45,10.0,NW,25.3,-,N/A,Rain,Light Rain,310,2013-12-01 12:11:00
2:18 AM,37.4,37.4,100,29.45,10.0,NW,23.0,-,N/A,,Overcast,310,2013-12-01 12:18:00
2:56 AM,37.0,36.0,96,29.46,10.0,NW,28.8,35.7,N/A,,Overcast,310,2013-12-01 12:56:00
3:18 AM,37.4,35.6,93,29.46,10.0,NW,28.8,38.0,N/A,,Overcast,310,2013-12-01 13:18:00
3:56 AM,37.0,36.0,96,29.47,10.0,WNW,27.6,39.1,N/A,,Overcast,300,2013-12-01 13:56:00
4:23 AM,37.4,35.6,93,29.47,10.0,NW,27.6,38.0,N/A,,Overcast,310,2013-12-01 14:23:00
4:38 AM,37.4,35.6,93,29.47,10.0,WNW,27.6,36.8,N/A,Rain,Light Rain,300,2013-12-01 14:38:00
4:56 AM,37.0,36.0,96,29.48,10.0,WNW,28.8,35.7,N/A,Rain,Light Rain,300,2013-12-01 14:56:00
5:56 AM,37.0,36.0,96,29.49,10.0,WNW,33.4,40.3,N/A,,Overcast,300,2013-12-01 15:56:00
6:26 AM,37.4,35.6,93,29.50,10.0,WNW,32.2,41.4,N/A,,Overcast,300,2013-12-01 16:26:00
6:37 AM,37.4,35.6,93,29.50,10.0,WNW,33.4,41.4,N/A,,Overcast,300,2013-12-01 16:37:00
6:47 AM,37.4,35.6,93,29.50,10.0,WNW,36.8,48.3,N/A,,Mostly Cloudy,300,2013-12-01 16:47:00
6:56 AM,37.0,35.1,93,29.51,10.0,WNW,35.7,44.9,N/A,,Mostly Cloudy,300,2013-12-01 16:56:00
7:56 AM,37.0,34.0,89,29.54,10.0,WNW,31.1,40.3,N/A,,Partly Cloudy,300,2013-12-01 17:56:00
8:56 AM,37.0,34.0,89,29.58,10.0,WNW,25.3,33.4,N/A,,Overcast,300,2013-12-01 18:56:00
9:10 AM,37.4,33.8,87,29.58,10.0,WNW,17.3,-,N/A,,Overcast,290,2013-12-01 19:10:00
9:56 AM,37.9,33.1,83,29.60,10.0,West,21.9,-,N/A,,Overcast,280,2013-12-01 19:56:00
10:06 AM,37.4,33.8,87,29.61,10.0,WNW,19.6,-,N/A,,Overcast,290,2013-12-01 20:06:00
10:56 AM,37.0,33.1,86,29.64,10.0,WNW,18.4,-,N/A,,Overcast,290,2013-12-01 20:56:00
11:56 AM,39.0,32.0,76,29.67,10.0,West,23.0,-,N/A,,Overcast,270,2013-12-01 21:56:00
12:56 PM,39.0,30.9,73,29.69,10.0,West,27.6,34.5,N/A,,Mostly Cloudy,270,2013-12-01 22:56:00
1:56 PM,39.0,30.9,73,29.72,10.0,West,28.8,32.2,N/A,,Overcast,280,2013-12-01 23:56:00
2:56 PM,39.0,32.0,76,29.74,10.0,West,28.8,34.5,N/A,,Overcast,270,2013-12-02 00:56:00
3:56 PM,37.9,28.9,70,29.76,10.0,West,27.6,36.8,N/A,,Partly Cloudy,270,2013-12-02 01:56:00
4:56 PM,37.0,27.0,67,29.80,10.0,West,29.9,38.0,N/A,,Clear,270,2013-12-02 02:56:00
5:56 PM,37.0,27.0,67,29.84,10.0,West,25.3,39.1,N/A,,Clear,270,2013-12-02 03:56:00
6:56 PM,37.0,27.0,67,29.86,10.0,West,28.8,38.0,N/A,,Clear,270,2013-12-02 04:56:00
7:56 PM,37.0,28.0,70,29.89,10.0,West,24.2,28.8,N/A,,Partly Cloudy,280,2013-12-02 05:56:00
8:56 PM,37.0,28.0,70,29.92,10.0,West,24.2,-,N/A,,Clear,270,2013-12-02 06:56:00
9:56 PM,37.0,28.9,73,29.95,10.0,West,20.7,-,N/A,,Clear,270,2013-12-02 07:56:00
10:56 PM,37.9,28.0,68,29.97,10.0,West,18.4,26.5,N/A,,Clear,270,2013-12-02 08:56:00
11:56 PM,37.9,30.9,76,30.00,10.0,West,15.0,-,N/A,,Mostly Cloudy,260,2013-12-02 09:56:00